Location: Hilton Head Island
(32.2163°N, 80.7526°W)
Time: 15:54:41
(UTC-05:00)

Explorer 11/Cluster Stage 4 - Pass Details

Date: 21 February 2026
Orbit: 463 x 1176 km, 28.8° (Epoch: 6 March)

Event Time Altitude Azimuth Distance (km) Brightness Sun altitude
Rises 15:28:27 0° 269° (W) 2,685 10.1 30.9°
Reaches altitude 10° 15:30:59 10° 259° (WSW) 1,714 9.5 30.5°
Maximum altitude 15:34:25 31° 195° (SSW) 852 8.0 29.9°
Drops below altitude 10° 15:37:38 10° 131° (SE) 1,598 8.2 29.4°
Sets 15:39:54 0° 121° (ESE) 2,470 8.9 29.0°
